EN

Hourly Weather Bolshoe Lykovo

Today, 23 October, Friday

Time Temperature Precipitation Wind Pressure Humidity
00:00 +7°C° 0 mm 5 mps 744 mmHg 88%
01:00 +7°C° 0 mm 6 mps 745 mmHg 91%
02:00 +7°C° 0 mm 6 mps 745 mmHg 93%
03:00 +8°C° 0 mm 6 mps 745 mmHg 92%
04:00 +8°C° 0 mm 6 mps 745 mmHg 92%
05:00 +9°C° 0 mm 6 mps 745 mmHg 91%
06:00 +9°C° 0 mm 6 mps 745 mmHg 91%
07:00 +9°C° 0 mm 6 mps 745 mmHg 91%
08:00 +9°C° 0 mm 6 mps 745 mmHg 91%
09:00 +10°C° 0 mm 6 mps 745 mmHg 86%
10:00 +11°C° 0 mm 6 mps 745 mmHg 81%
11:00 +13°C° 0 mm 6 mps 745 mmHg 76%
12:00 +14°C° 0 mm 6 mps 745 mmHg 75%
13:00 +14°C° 0 mm 6 mps 745 mmHg 74%
14:00 +15°C° 0 mm 6 mps 745 mmHg 73%
15:00 +14°C° 0 mm 6 mps 744 mmHg 76%
16:00 +13°C° 0 mm 5 mps 744 mmHg 78%
17:00 +13°C° 0 mm 5 mps 743 mmHg 81%
18:00 +13°C° 0 mm 5 mps 743 mmHg 81%
19:00 +13°C° 0 mm 6 mps 743 mmHg 82%
20:00 +13°C° 0 mm 6 mps 743 mmHg 82%
21:00 +13°C° 0.3 mm 6 mps 743 mmHg 85%
22:00 +11°C° 0.3 mm 6 mps 743 mmHg 87%
23:00 +12°C° 0.3 mm 5 mps 742 mmHg 90%

Tomorrow, 24 October, Saturday

Time Temperature Precipitation Wind Pressure Humidity
00:00 +12°C° 0 mm 5 mps 743 mmHg 91%
01:00 +10°C° 0 mm 5 mps 743 mmHg 93%
02:00 +9°C° 0 mm 5 mps 743 mmHg 94%
03:00 +10°C° 0 mm 4 mps 743 mmHg 93%
04:00 +10°C° 0 mm 4 mps 743 mmHg 91%
05:00 +10°C° 0 mm 3 mps 744 mmHg 89%
06:00 +10°C° 0 mm 3 mps 744 mmHg 90%
07:00 +10°C° 0 mm 4 mps 744 mmHg 91%
08:00 +10°C° 0 mm 4 mps 745 mmHg 91%
09:00 +11°C° 0 mm 3 mps 745 mmHg 87%
10:00 +11°C° 0 mm 3 mps 745 mmHg 82%
11:00 +12°C° 0 mm 3 mps 745 mmHg 78%
12:00 +12°C° 0 mm 3 mps 745 mmHg 75%
13:00 +13°C° 0 mm 3 mps 745 mmHg 73%
14:00 +13°C° 0 mm 3 mps 745 mmHg 70%
15:00 +12°C° 0 mm 3 mps 745 mmHg 75%
16:00 +12°C° 0 mm 2 mps 745 mmHg 79%
17:00 +11°C° 0 mm 1 mps 745 mmHg 83%
18:00 +11°C° 0 mm 1 mps 745 mmHg 85%
19:00 +11°C° 0 mm 1 mps 745 mmHg 86%
20:00 +10°C° 0 mm 1 mps 745 mmHg 88%
21:00 +10°C° 0 mm 1 mps 745 mmHg 88%
22:00 +10°C° 0 mm 1 mps 745 mmHg 88%
23:00 +10°C° 0 mm 1 mps 744 mmHg 88%

Day after tomorrow, 25 October, Sunday

Time Temperature Precipitation Wind Pressure Humidity
00:00 +10°C° 0.8 mm 1 mps 744 mmHg 90%
01:00 +10°C° 0.8 mm 1 mps 744 mmHg 93%
02:00 +9°C° 0.8 mm 2 mps 744 mmHg 96%
03:00 +9°C° 0.9 mm 2 mps 744 mmHg 95%
04:00 +9°C° 0.9 mm 2 mps 744 mmHg 95%
05:00 +9°C° 0.9 mm 2 mps 744 mmHg 95%
06:00 +9°C° 0 mm 2 mps 744 mmHg 92%
07:00 +8°C° 0 mm 3 mps 744 mmHg 89%
08:00 +8°C° 0 mm 3 mps 745 mmHg 87%
09:00 +8°C° 0 mm 4 mps 745 mmHg 83%
10:00 +10°C° 0 mm 4 mps 746 mmHg 79%
11:00 +10°C° 0 mm 5 mps 746 mmHg 75%
12:00 +10°C° 0 mm 5 mps 746 mmHg 76%
13:00 +10°C° 0 mm 5 mps 746 mmHg 77%
14:00 +9°C° 0 mm 5 mps 747 mmHg 78%
15:00 +9°C° 0 mm 5 mps 747 mmHg 77%
16:00 +9°C° 0 mm 5 mps 748 mmHg 77%
17:00 +10°C° 0 mm 4 mps 748 mmHg 76%
18:00 +8°C° 0 mm 4 mps 749 mmHg 77%
19:00 +8°C° 0 mm 4 mps 749 mmHg 78%
20:00 +8°C° 0 mm 3 mps 750 mmHg 79%
21:00 +8°C° 0 mm 3 mps 750 mmHg 81%
22:00 +7°C° 0 mm 3 mps 751 mmHg 83%
23:00 +5°C° 0 mm 3 mps 751 mmHg 84%

, 26 October, Monday

Time Temperature Precipitation Wind Pressure Humidity
00:00 +5°C° 0 mm 3 mps 752 mmHg 86%
01:00 +4°C° 0 mm 3 mps 752 mmHg 87%
02:00 +5°C° 0 mm 2 mps 752 mmHg 88%
03:00 +5°C° 0 mm 2 mps 753 mmHg 89%
04:00 +4°C° 0 mm 2 mps 753 mmHg 91%
05:00 +4°C° 0 mm 2 mps 754 mmHg 92%
06:00 +4°C° 0 mm 2 mps 754 mmHg 90%
07:00 +6°C° 0 mm 1 mps 754 mmHg 89%
08:00 +6°C° 0 mm 1 mps 755 mmHg 87%
09:00 +7°C° 0 mm 1 mps 755 mmHg 81%
10:00 +9°C° 0 mm 1 mps 755 mmHg 74%
11:00 +10°C° 0 mm 1 mps 755 mmHg 68%
12:00 +10°C° 0 mm 1 mps 755 mmHg 65%
13:00 +11°C° 0 mm 1 mps 755 mmHg 63%
14:00 +10°C° 0 mm 0 mps 755 mmHg 60%
15:00 +10°C° 0 mm 1 mps 755 mmHg 65%
16:00 +9°C° 0 mm 1 mps 755 mmHg 69%
17:00 +8°C° 0 mm 1 mps 755 mmHg 74%
18:00 +7°C° 0 mm 2 mps 755 mmHg 76%
19:00 +6°C° 0 mm 2 mps 756 mmHg 79%
20:00 +6°C° 0 mm 2 mps 756 mmHg 81%
21:00 +5°C° 0 mm 2 mps 756 mmHg 82%
22:00 +5°C° 0 mm 2 mps 756 mmHg 84%
23:00 +4°C° 0 mm 3 mps 756 mmHg 85%

26 October, Monday

Time Temperature Precipitation Wind Pressure Humidity
00:00 +5°C° 0 mm 3 mps 752 mmHg 86%
01:00 +4°C° 0 mm 3 mps 752 mmHg 87%
02:00 +5°C° 0 mm 2 mps 752 mmHg 88%
03:00 +5°C° 0 mm 2 mps 753 mmHg 89%
04:00 +4°C° 0 mm 2 mps 753 mmHg 91%
05:00 +4°C° 0 mm 2 mps 754 mmHg 92%
06:00 +4°C° 0 mm 2 mps 754 mmHg 90%
07:00 +6°C° 0 mm 1 mps 754 mmHg 89%
08:00 +6°C° 0 mm 1 mps 755 mmHg 87%
09:00 +7°C° 0 mm 1 mps 755 mmHg 81%
10:00 +9°C° 0 mm 1 mps 755 mmHg 74%
11:00 +10°C° 0 mm 1 mps 755 mmHg 68%
12:00 +10°C° 0 mm 1 mps 755 mmHg 65%
13:00 +11°C° 0 mm 1 mps 755 mmHg 63%
14:00 +10°C° 0 mm 0 mps 755 mmHg 60%
15:00 +10°C° 0 mm 1 mps 755 mmHg 65%
16:00 +9°C° 0 mm 1 mps 755 mmHg 69%
17:00 +8°C° 0 mm 1 mps 755 mmHg 74%
18:00 +7°C° 0 mm 2 mps 755 mmHg 76%
19:00 +6°C° 0 mm 2 mps 756 mmHg 79%
20:00 +6°C° 0 mm 2 mps 756 mmHg 81%
21:00 +5°C° 0 mm 2 mps 756 mmHg 82%
22:00 +5°C° 0 mm 2 mps 756 mmHg 84%
23:00 +4°C° 0 mm 3 mps 756 mmHg 85%

27 October, Tuesday

Time Temperature Precipitation Wind Pressure Humidity
00:00 +4°C° 0 mm 3 mps 756 mmHg 86%
01:00 +3°C° 0 mm 3 mps 756 mmHg 87%
02:00 +3°C° 0 mm 3 mps 756 mmHg 88%
03:00 +3°C° 0 mm 3 mps 756 mmHg 88%
04:00 +3°C° 0 mm 3 mps 756 mmHg 89%
05:00 +2°C° 0 mm 3 mps 757 mmHg 89%
06:00 +3°C° 0 mm 3 mps 757 mmHg 87%
07:00 +3°C° 0 mm 4 mps 757 mmHg 84%
08:00 +4°C° 0 mm 4 mps 757 mmHg 82%
09:00 +5°C° 0 mm 4 mps 757 mmHg 77%
10:00 +6°C° 0 mm 5 mps 757 mmHg 71%
11:00 +8°C° 0 mm 5 mps 757 mmHg 65%
12:00 +8°C° 0 mm 5 mps 757 mmHg 65%
13:00 +8°C° 0 mm 4 mps 756 mmHg 64%
14:00 +8°C° 0 mm 4 mps 756 mmHg 64%
15:00 +8°C° 0 mm 4 mps 756 mmHg 66%
16:00 +7°C° 0 mm 4 mps 756 mmHg 69%
17:00 +7°C° 0 mm 4 mps 756 mmHg 72%
18:00 +7°C° 0 mm 4 mps 756 mmHg 72%
19:00 +6°C° 0 mm 4 mps 756 mmHg 73%
20:00 +6°C° 0 mm 5 mps 756 mmHg 73%
21:00 +6°C° 0 mm 4 mps 755 mmHg 73%
22:00 +6°C° 0 mm 4 mps 755 mmHg 73%
23:00 +6°C° 0 mm 4 mps 755 mmHg 73%

28 October, Wednesday

Time Temperature Precipitation Wind Pressure Humidity
00:00 +6°C° 0 mm 4 mps 755 mmHg 74%
01:00 +7°C° 0 mm 3 mps 755 mmHg 74%
02:00 +7°C° 0 mm 3 mps 755 mmHg 75%
03:00 +7°C° 0 mm 3 mps 755 mmHg 76%
04:00 +7°C° 0 mm 3 mps 755 mmHg 78%
05:00 +5°C° 0 mm 4 mps 755 mmHg 79%
06:00 +6°C° 0 mm 4 mps 755 mmHg 78%
07:00 +6°C° 0 mm 4 mps 755 mmHg 78%
08:00 +6°C° 0 mm 4 mps 755 mmHg 77%
09:00 +7°C° 0 mm 4 mps 754 mmHg 72%
10:00 +8°C° 0 mm 5 mps 754 mmHg 68%
11:00 +9°C° 0 mm 5 mps 754 mmHg 63%
12:00 +10°C° 0 mm 5 mps 754 mmHg 61%
13:00 +10°C° 0 mm 5 mps 754 mmHg 59%
14:00 +10°C° 0 mm 5 mps 754 mmHg 56%
15:00 +10°C° 0 mm 4 mps 753 mmHg 59%
16:00 +8°C° 0 mm 4 mps 753 mmHg 62%
17:00 +8°C° 0 mm 3 mps 753 mmHg 65%
18:00 +8°C° 0 mm 3 mps 753 mmHg 65%
19:00 +7°C° 0 mm 4 mps 753 mmHg 64%
20:00 +6°C° 0 mm 4 mps 753 mmHg 63%
21:00 +6°C° 0 mm 4 mps 753 mmHg 63%
22:00 +7°C° 0 mm 3 mps 753 mmHg 64%
23:00 +5°C° 0 mm 3 mps 753 mmHg 64%
Show more